Regional Weather Roundup
Issued by NWS

Home | Current Version | Previous Version | Text Only | Print | Product List | Glossary On
Versions: 1 2 3 4 5 6 7 8 9 10 11 12 13 14 15 16 17 18 19 20 21 22 23 24 25 26 27 28 29 30 31 32 33 34 35 36 37 38 39 40 41 42 43 44 45 46 47 48 49 50
000
ASUS44 KOUN 061710
RWROK

WEATHER ROUNDUP FOR OKLAHOMA
NATIONAL WEATHER SERVICE NORMAN OK
1100 AM CST FRI MAR 06 2015

NOTE: "FAIR" INDICATES FEW OR NO CLOUDS BELOW 12,000 FEET WITH NO
      SIGNIFICANT WEATHER AND/OR OBSTRUCTIONS TO VISIBILITY.

OKZ001>007-009>012-014-015-017-061800-
NORTHWEST OKLAHOMA AND THE PANHANDLE

CITY           SKY/WX    TMP DP  RH WIND       PRES   REMARKS
GAGE           SUNNY     50  28  42 SW10      30.38S
GUYMON         SUNNY     46  29  51 VRB5      30.35
ENID/WOODRING  SUNNY     48  32  53 S15G23    30.42F
$$

OKZ016-021>023-033>039-044-045-061800-
SOUTHWEST OKLAHOMA

CITY           SKY/WX    TMP DP  RH WIND       PRES   REMARKS
LAWTON/REGL    SUNNY     44  26  49 SW12      30.52F
LAWTON/FT SILL SUNNY     44  27  51 SW13      30.50F
FREDERICK      SUNNY     46  26  45 SW18      30.49S
CLINTON        SUNNY     41  28  60 S12       30.45F
HOBART         SUNNY     42  29  59 SW13      30.48F
ALTUS AFB      SUNNY     46  30  52 SW12      30.48F
$$

OKZ018>020-024>031-061800-
CENTRAL OKLAHOMA

CITY           SKY/WX    TMP DP  RH WIND       PRES   REMARKS
OKLAHOMA CITY  SUNNY     46  23  40 SW12      30.48F
OKC/WILEY POST SUNNY     45  25  45 SW14      30.48F
OKC/TINKER AFB SUNNY     44  23  44 SW16      30.47F
STILLWATER     SUNNY     50  24  36 SW15      30.45F
GUTHRIE        SUNNY     47  24  40 SW15      30.46F
$$

OKZ008-013-054>072-061800-
NORTHEAST OKLAHOMA

CITY           SKY/WX    TMP DP  RH WIND       PRES   REMARKS
TULSA          SUNNY     46  23  40 S12G20    30.48F
TULSA/JONES    SUNNY     47  23  38 SW15      30.49F
PONCA CITY     SUNNY     46  26  45 SW12G22   30.43F
BARTLESVILLE   SUNNY     49  25  39 SW9G16    30.46F
MUSKOGEE       SUNNY     44  23  43 SW12      30.55F
$$

OKZ032-040>043-046>053-073>077-061800-
SOUTH CENTRAL/SOUTHEAST OKLAHOMA

CITY           SKY/WX    TMP DP  RH WIND       PRES   REMARKS
ARDMORE/DWNTWN SUNNY     43  25  49 CALM      30.56S
MCALESTER      SUNNY     43  24  47 SW12G20   30.55F
$$



USA.gov is the U.S. government's official web portal to all federal, state and local government web resources and services.